[[{"header":{"parameterUnit":"m.s-1","parameterCategory":1,"la1":30.2991,"la2":30.254,"lo1":-89.0895,"lo2":-89.0444,"dy":0.0017,"dx":0.0017,"nx":28,"ny":28,"refTime":"2025-04-16T03:00:00:Z","depth":0,"parameterNumber":2,"parameterNumberName":"U-component_of_WINDS"},"data":[0,0,0,0,0,0,0,0,0,0,0,0,0,0,0,0,0,0,0,0,0,0,0,0,0,0,0,0,0,0,0,0,0,0,0,0,0,0,0,0,0,0,0,0,0,0,0,0,0,0,0,0,0,0,0,0,0,0,0.4245,0.4246,0,0.4264,0.4264,0.4264,0.4285,0.4285,0.4286,0.4286,0.4304,0.4304,0.4305,0,0,0,0,0,0,0,0,0,0,0,0,0,0.4228,0.4229,0.4245,0.4246,0.4246,0.4264,0.4264,0.4264,0.4285,0.4285,0.4286,0.4286,0.4304,0.4304,0.4305,0,0,0,0,0,0,0,0,0,0,0,0,0,0.424,0.4229,0.4245,0.4258,0.426,0.4264,0.4264,0.4264,0.4285,0.4285,0.4286,0.4286,0.4304,0.4304,0.4305,0.4297,0,0,0.4306,0.4306,0,0,0,0,0,0,0,0,0.4239,0.4241,0.4256,0.4258,0.4259,0.4273,0.4265,0.4275,0.4285,0.4275,0.4286,0.4287,0.4293,0.4294,0.4297,0.4298,0.4299,0.4306,0.4306,0.4306,0.4306,0,0,0,0,0,0,0,0.4239,0.424,0.4253,0.4257,0.4258,0.4263,0.4266,0.4267,0.4281,0.4276,0.4278,0.428,0.4294,0.4297,0.4297,0.4299,0.4306,0.4306,0.4306,0.4306,0.4295,0.4294,0,0,0,0,0,0,0.4236,0.4239,0.4252,0.4253,0.425,0.4263,0.4266,0.4268,0.4282,0.4284,0.4279,0.4281,0.4296,0.4297,0.4298,0.429,0.4306,0.4306,0.4306,0.4295,0.4295,0.4294,0,0,0,0,0,0,0.4235,0.4237,0.4251,0.4247,0.4249,0.4263,0.4265,0.4268,0.427,0.4284,0.4287,0.4279,0.4296,0.4298,0.4297,0.4291,0.4306,0.4306,0.4296,0.4295,0.4294,0.4274,0,0,0,0,0,0,0.4235,0.4236,0.4234,0.4246,0.4249,0.425,0.4265,0.4268,0.4271,0.4273,0.4284,0.4287,0.4297,0.4297,0.4297,0.4292,0.4307,0.4296,0.4295,0.4295,0.4275,0.4272,0.427,0,0,0,0,0,0.4234,0.4227,0.4233,0.4235,0.4246,0.425,0.4251,0.4263,0.427,0.4268,0.4276,0.4286,0.4292,0.4296,0.4298,0.4292,0.4297,0.4296,0.4295,0.4276,0.4273,0.427,0,0,0,0,0,0,0.4213,0.4229,0.4236,0.4233,0.424,0.4253,0.425,0.4259,0.4264,0.4265,0.428,0.4282,0.428,0.4286,0.4291,0.4285,0.4296,0.4295,0.4281,0.4278,0.4276,0.4274,0.4307,0,0,0,0,0,0.4208,0.4209,0.4223,0.4219,0.4222,0.4236,0.4238,0.4246,0.4254,0.4257,0.4265,0.4272,0.4276,0.4277,0.4281,0.4276,0.4279,0.4273,0.427,0.4268,0.4267,0.4265,0.4262,0.4291,0.4291,0.4291,0,0,0.4197,0.4206,0.4206,0.4215,0.4222,0.4223,0.4238,0.4239,0.424,0.4257,0.4257,0.4263,0.4272,0.4269,0.4268,0.4274,0.426,0.4267,0.4265,0.4265,0.4263,0.4261,0.4258,0.429,0.429,0.429,0,0,0.4179,0.4186,0.4183,0.4189,0.4199,0.4208,0.4207,0.4219,0.4224,0.4225,0.4237,0.4239,0.4244,0.425,0.4254,0.4238,0.4247,0.4239,0.4226,0.4223,0.4221,0.4219,0.4213,0.4211,0.4238,0.4238,0.4238,0,0.4164,0.4167,0.418,0.418,0.4184,0.42,0.4197,0.4203,0.4213,0.4215,0.4221,0.4228,0.4235,0.4234,0.423,0.4233,0.4232,0.4237,0.422,0.4219,0.4217,0.4211,0.4209,0.4237,0.4237,0.4237,0.4237,0,0.4148,0.415,0.4147,0.4156,0.416,0.4158,0.4172,0.4173,0.4182,0.419,0.419,0.42,0.4205,0.4206,0.4214,0.4206,0.4209,0.4218,0.4229,0.4213,0.4208,0.4206,0.4235,0.4235,0.4236,0.4236,0,0,0.4116,0.4134,0.4132,0.4137,0.4149,0.415,0.415,0.4156,0.4157,0.4164,0.4163,0.4168,0.4176,0.418,0.4189,0.4188,0.4174,0.4197,0.4197,0.4192,0.4165,0.4158,0.4155,0.4181,0.4181,0.418,0.4164,0,0.4099,0.4099,0.4112,0.4108,0.411,0.4126,0.4125,0.4132,0.414,0.4143,0.4152,0.4155,0.4166,0.4168,0.4167,0.4176,0.4169,0.4177,0.418,0.418,0.4177,0.4153,0.4145,0.413,0.4163,0.4162,0.4162,0,0.4079,0.4085,0.4081,0.4094,0.4095,0.4094,0.4101,0.4104,0.4112,0.4118,0.4123,0.4134,0.4134,0.4145,0.4146,0.4151,0.4154,0.4158,0.4158,0.4158,0.417,0.4152,0.4125,0.4122,0.4159,0.4159,0.416,0,0.4055,0.4062,0.4061,0.4064,0.4079,0.4078,0.4084,0.4094,0.4096,0.4102,0.4104,0.411,0.4113,0.4118,0.413,0.4137,0.4129,0.4141,0.4134,0.4133,0.4131,0.413,0.4103,0.4133,0.4133,0.4133,0.4133,0,0.4034,0.4031,0.405,0.4049,0.4047,0.4062,0.4059,0.4066,0.4075,0.4076,0.409,0.409,0.4107,0.4109,0.4119,0.4118,0.4119,0.4124,0.4126,0.4122,0.4121,0.4123,0.4124,0.4133,0.4133,0.4133,0.4133,0,0.4006,0.4019,0.4019,0.4033,0.4036,0.4034,0.4046,0.4046,0.4055,0.4056,0.4057,0.4072,0.4075,0.4088,0.4095,0.4101,0.4097,0.4102,0.4094,0.4096,0.4087,0.4088,0.406,0.4057,0.4089,0.4089,0.4088,0,0.3992,0.399,0.4004,0.4006,0.4011,0.4014,0.4017,0.4032,0.4035,0.4045,0.4043,0.4048,0.4053,0.4058,0.4069,0.4075,0.408,0.407,0.4081,0.4076,0.4079,0.4078,0.4078,0.4067,0.4066,0.4066,0.4066,0,0.3965,0.3971,0.3975,0.3981,0.3985,0.3991,0.3997,0.3998,0.4014,0.4016,0.4021,0.4024,0.4032,0.4036,0.4044,0.405,0.406,0.4063,0.4061,0.4056,0.4051,0.4053,0.4087,0.4063,0.4063,0.4063,0.4063,0.4064,0.3943,0.3942,0.3952,0.3956,0.3962,0.3968,0.3969,0.3978,0.3982,0.3989,0.3998,0.4001,0.401,0.4021,0.4027,0.4029,0.4035,0.4033,0.4032,0.4031,0.4029,0.4052,0.4031,0.4031,0.4031,0.4031,0.4031,0,0.3916,0.3923,0.3927,0.3935,0.3939,0.3949,0.3957,0.3959,0.3961,0.3969,0.3974,0.3978,0.3983,0.3995,0.4001,0.4001,0.4006,0.4002,0.4001,0.4003,0.4024,0.4024,0.3998,0.3998,0.3998,0.3998,0.3998,0.3998,0.3902,0.3901,0.3909,0.3911,0.3919,0.3922,0.3925,0.3931,0.3937,0.3942,0.3946,0.3954,0.3963,0.397,0.3975,0.3978,0.398,0.3974,0.3979,0.3998,0.4001,0.4004,0.4005,0.3974,0.3974,0.3957,0.3957,0.3957]},{"header":{"parameterUnit":"m.s-1","parameterCategory":1,"la1":30.2991,"la2":30.254,"lo1":-89.0895,"lo2":-89.0444,"dy":0.0017,"dx":0.0017,"nx":28,"ny":28,"refTime":"2025-04-16T03:00:00:Z","depth":0,"parameterNumber":3,"parameterNumberName":"V-component_of_WINDS"},"data":[0,0,0,0,0,0,0,0,0,0,0,0,0,0,0,0,0,0,0,0,0,0,0,0,0,0,0,0,0,0,0,0,0,0,0,0,0,0,0,0,0,0,0,0,0,0,0,0,0,0,0,0,0,0,0,0,0,0,-2.7635,-2.7636,0,-2.7698,-2.7699,-2.7699,-2.7682,-2.7681,-2.7679,-2.7678,-2.7739,-2.7741,-2.7744,0,0,0,0,0,0,0,0,0,0,0,0,0,-2.7497,-2.75,-2.7635,-2.7636,-2.7637,-2.7698,-2.7699,-2.77,-2.7682,-2.7681,-2.7679,-2.7678,-2.7738,-2.7741,-2.7744,0,0,0,0,0,0,0,0,0,0,0,0,0,-2.7558,-2.75,-2.7635,-2.7635,-2.7636,-2.7698,-2.7699,-2.77,-2.7683,-2.7681,-2.7679,-2.7677,-2.7737,-2.7741,-2.7745,-2.7808,0,0,-2.7757,-2.7759,0,0,0,0,0,0,0,0,-2.7555,-2.7563,-2.7634,-2.7635,-2.7636,-2.768,-2.7672,-2.7736,-2.7683,-2.7665,-2.7678,-2.7676,-2.772,-2.7726,-2.7742,-2.7811,-2.7814,-2.7758,-2.776,-2.7762,-2.7763,0,0,0,0,0,0,0,-2.755,-2.756,-2.766,-2.7635,-2.7637,-2.7632,-2.7638,-2.7684,-2.7702,-2.7666,-2.7665,-2.7673,-2.772,-2.7738,-2.7743,-2.7815,-2.7758,-2.7761,-2.7764,-2.7766,-2.7941,-2.7943,0,0,0,0,0,0,-2.7546,-2.7557,-2.7658,-2.7662,-2.759,-2.7636,-2.7643,-2.7668,-2.7702,-2.7705,-2.7675,-2.7672,-2.7731,-2.7738,-2.7745,-2.7823,-2.7762,-2.7766,-2.7768,-2.7939,-2.7941,-2.7944,0,0,0,0,0,0,-2.7543,-2.7555,-2.7655,-2.7609,-2.7621,-2.764,-2.7668,-2.767,-2.7687,-2.7708,-2.7711,-2.7689,-2.773,-2.7739,-2.7793,-2.7824,-2.7768,-2.7772,-2.7936,-2.794,-2.7943,-2.7978,0,0,0,0,0,0,-2.7539,-2.7554,-2.7579,-2.761,-2.7624,-2.7703,-2.767,-2.7673,-2.7695,-2.7692,-2.7722,-2.7725,-2.7729,-2.7787,-2.7797,-2.7829,-2.7775,-2.7933,-2.7938,-2.7942,-2.7974,-2.7982,-2.7988,0,0,0,0,0,-2.7534,-2.7585,-2.758,-2.7593,-2.7656,-2.7705,-2.7713,-2.7718,-2.7698,-2.7723,-2.7736,-2.7724,-2.782,-2.7793,-2.7804,-2.7838,-2.7932,-2.7937,-2.7941,-2.797,-2.798,-2.7988,0,0,0,0,0,0,-2.7555,-2.7589,-2.7584,-2.7646,-2.7674,-2.7702,-2.7733,-2.7728,-2.776,-2.7755,-2.7759,-2.7766,-2.7821,-2.7835,-2.7805,-2.7902,-2.7872,-2.788,-2.7891,-2.79,-2.7907,-2.7903,-2.7778,0,0,0,0,0,-2.7568,-2.7606,-2.7633,-2.7685,-2.7699,-2.7714,-2.7736,-2.7738,-2.7765,-2.7776,-2.7793,-2.7819,-2.7855,-2.7878,-2.7912,-2.7976,-2.7982,-2.8005,-2.8012,-2.8018,-2.8024,-2.806,-2.807,-2.796,-2.796,-2.796,0,0,-2.7592,-2.7616,-2.7639,-2.769,-2.7711,-2.7751,-2.7724,-2.7766,-2.7795,-2.7782,-2.7835,-2.7849,-2.7878,-2.7938,-2.7965,-2.795,-2.8056,-2.8024,-2.8029,-2.8032,-2.8066,-2.8076,-2.8085,-2.7963,-2.7962,-2.7962,0,0,-2.7658,-2.7679,-2.7726,-2.7749,-2.7782,-2.7792,-2.7803,-2.7833,-2.7843,-2.7897,-2.7888,-2.7922,-2.7983,-2.8005,-2.8024,-2.8101,-2.8091,-2.8111,-2.8149,-2.8184,-2.8193,-2.82,-2.8228,-2.8238,-2.8118,-2.8118,-2.8118,0,-2.7684,-2.7744,-2.775,-2.7795,-2.7817,-2.781,-2.7857,-2.7878,-2.7919,-2.7935,-2.7919,-2.7997,-2.8016,-2.8082,-2.8101,-2.8116,-2.8129,-2.8107,-2.8191,-2.8199,-2.8206,-2.8233,-2.8243,-2.812,-2.812,-2.8119,-2.8119,0,-2.7775,-2.7817,-2.7851,-2.7894,-2.792,-2.7966,-2.7978,-2.8005,-2.8005,-2.8016,-2.8071,-2.8094,-2.8134,-2.8149,-2.8148,-2.8215,-2.8205,-2.819,-2.8161,-2.8219,-2.8244,-2.8254,-2.8123,-2.8122,-2.8122,-2.8121,0,0,-2.7853,-2.7902,-2.7914,-2.7934,-2.7971,-2.8003,-2.8048,-2.8089,-2.8111,-2.8141,-2.8179,-2.8232,-2.8219,-2.8241,-2.8243,-2.8274,-2.8334,-2.8255,-2.8256,-2.8269,-2.8409,-2.842,-2.8431,-2.8328,-2.833,-2.8332,-2.8407,0,-2.7922,-2.8004,-2.8012,-2.8084,-2.8123,-2.8118,-2.8157,-2.8184,-2.8196,-2.8231,-2.8244,-2.8282,-2.8262,-2.8275,-2.8306,-2.832,-2.8362,-2.8315,-2.8363,-2.8364,-2.8356,-2.8444,-2.8456,-2.8525,-2.8416,-2.8418,-2.8419,0,-2.8013,-2.8048,-2.8125,-2.8159,-2.8175,-2.8211,-2.8249,-2.8282,-2.8313,-2.832,-2.8346,-2.8344,-2.839,-2.836,-2.8424,-2.8392,-2.8412,-2.8422,-2.8425,-2.8429,-2.8395,-2.8451,-2.8547,-2.8557,-2.8434,-2.8433,-2.8432,0,-2.8063,-2.8129,-2.8184,-2.8201,-2.8242,-2.8267,-2.8285,-2.8314,-2.8338,-2.8371,-2.8387,-2.8425,-2.8445,-2.8474,-2.8483,-2.846,-2.8547,-2.8517,-2.8553,-2.8553,-2.8571,-2.8569,-2.8672,-2.8584,-2.8584,-2.8584,-2.8584,0,-2.8139,-2.8186,-2.8207,-2.8241,-2.8294,-2.8303,-2.8355,-2.8371,-2.8398,-2.8434,-2.8431,-2.8465,-2.8475,-2.851,-2.8517,-2.8569,-2.8578,-2.8585,-2.8586,-2.8585,-2.8584,-2.8598,-2.8593,-2.8587,-2.8586,-2.8586,-2.8585,0,-2.8203,-2.8219,-2.8279,-2.8313,-2.8323,-2.8361,-2.839,-2.8422,-2.8435,-2.8482,-2.8493,-2.8513,-2.8555,-2.8567,-2.8616,-2.8621,-2.8683,-2.8679,-2.8673,-2.8673,-2.8709,-2.8705,-2.8823,-2.8839,-2.8741,-2.8742,-2.8743,0,-2.825,-2.8287,-2.8326,-2.8351,-2.8371,-2.8411,-2.8437,-2.8447,-2.8474,-2.8513,-2.8541,-2.8583,-2.8617,-2.8684,-2.8702,-2.8741,-2.8738,-2.8777,-2.8744,-2.8742,-2.8739,-2.8737,-2.8741,-2.8783,-2.8784,-2.8785,-2.8786,0,-2.8332,-2.8339,-2.8377,-2.8418,-2.845,-2.8482,-2.8514,-2.8534,-2.8549,-2.8579,-2.8624,-2.865,-2.8703,-2.8745,-2.8784,-2.8801,-2.8796,-2.8796,-2.8807,-2.8806,-2.8801,-2.8804,-2.869,-2.8793,-2.8792,-2.8792,-2.8791,-2.8791,-2.8389,-2.8422,-2.8456,-2.8498,-2.8524,-2.8554,-2.8587,-2.8605,-2.8643,-2.8687,-2.8691,-2.8739,-2.877,-2.8823,-2.8842,-2.888,-2.8868,-2.8883,-2.8887,-2.889,-2.8894,-2.8796,-2.8887,-2.8886,-2.8886,-2.8886,-2.8886,0,-2.8471,-2.8493,-2.8532,-2.8578,-2.8612,-2.8607,-2.8642,-2.867,-2.8713,-2.8743,-2.8778,-2.8829,-2.887,-2.8893,-2.8933,-2.8959,-2.8958,-2.8969,-2.8967,-2.8971,-2.8901,-2.8888,-2.897,-2.897,-2.897,-2.897,-2.897,-2.897,-2.8517,-2.8573,-2.8585,-2.8654,-2.8675,-2.8724,-2.8744,-2.8772,-2.8796,-2.8855,-2.889,-2.8905,-2.8932,-2.8975,-2.9013,-2.9018,-2.9033,-2.9047,-2.9051,-2.8985,-2.8976,-2.8968,-2.8956,-2.905,-2.905,-2.9118,-2.9118,-2.9119]}]]